Home > Weather > Bridgetown > Past weeks

Flag for Barbados Weather for the Past 2 Weeks in Bridgetown, Barbados

Now
77 °F

Passing clouds.


Feels Like: 78 °F
Forecast: N/A
Wind: 26 mph from East

Location: Grantley Adams

Current Time: Feb 8, 2016 at 7:40:01 PM

Latest Report: Feb 8, 2016 at 7:00 PM


Visibility: N/A

Pressure: 29.98 "Hg

Humidity: 89%

Dew point: 73 °F

Location of BridgetownLocation

Historic Weather in Bridgetown — Graph

°F

Bridgetown Temperature Yesterday

Maximum temperature yesterday: 84 °F (at 10:00 AM)
Minimum temperature yesterday: 77 °F (at 5:00 AM)
Average temperature yesterday: 81 °F

High & Low Weather Summary for the Past Weeks

 TemperatureHumidityPressure
High86 °F (Jan 25, 12:00 PM)94% (Jan 25, 3:00 AM)30.09 "Hg (Jan 25, 3:00 AM)
Low70 °F (Feb 3, 11:00 PM)55% (Jan 27, 1:00 PM)29.86 "Hg (Feb 3, 4:00 PM)
Average79 °F75%29.99 "Hg
* Reported Jan 24 6:00 PM — Feb 8 6:00 PM, Bridgetown, Weather by CustomWeather, © 2016

Note: Actual official high and low records may vary slightly from our data, if they occured in-between our weather recording intervals... More about our weather records

Advertising

Bridgetown Weather History for the Previous 24 Hours

 ConditionsComfort  
Time TempWeatherWind HumidityBarometerVisibility
6:00 PM
Mon, Feb 8
77 °FScattered clouds.23 mph94%29.98 "HgN/A
5:00 PM81 °FScattered clouds.24 mph79%29.98 "HgN/A
4:00 PM81 °FScattered clouds.20 mph79%29.95 "HgN/A
3:00 PM84 °FPassing clouds.21 mph70%29.95 "HgN/A
2:00 PM81 °FBroken clouds.23 mph79%29.98 "HgN/A
1:00 PM84 °FBroken clouds.24 mph70%30.01 "HgN/A
12:00 PM84 °FPassing clouds.23 mph66%30.04 "HgN/A
11:00 AM84 °FPartly sunny.20 mph66%30.07 "HgN/A
10:00 AM84 °FPassing clouds.20 mph70%30.07 "HgN/A
9:00 AM84 °FPassing clouds.18 mph66%30.07 "HgN/A
8:00 AM81 °FScattered clouds.21 mph74%30.04 "HgN/A
7:00 AM79 °FPassing clouds.20 mph79%30.01 "HgN/A
6:00 AM79 °FPassing clouds.20 mph79%30.01 "HgN/A
5:00 AM79 °FPassing clouds.17 mph79%29.98 "HgN/A
4:00 AM79 °FPassing clouds.18 mph79%29.98 "HgN/A
3:00 AM79 °FPassing clouds.18 mph79%29.98 "HgN/A
2:00 AM79 °FPassing clouds.20 mph79%29.98 "HgN/A
1:00 AM79 °FPassing clouds.18 mph74%30.01 "HgN/A
12:00 AM79 °FPassing clouds.20 mph74%30.01 "HgN/A
11:00 PM
Sun, Feb 7
79 °FPassing clouds.21 mph79%30.04 "HgN/A
10:00 PM79 °FPassing clouds.18 mph79%30.04 "HgN/A
9:00 PM79 °FPassing clouds.16 mph79%30.01 "HgN/A
8:00 PM79 °FPassing clouds.16 mph79%30.01 "HgN/A
7:00 PM79 °FPassing clouds.20 mph79%29.98 "HgN/A
Weather by CustomWeather, © 2016

See weather overviewHow to use our weather pages